Location: Gro�bocka
(50.8204°N, 11.9702°E)
Time: 07:21:48
(UTC+00:00)

Cosmos 1486 Rocket - Pass Details

Date: 29 October 2020
Orbit: 758 x 784 km, 74.1° (Epoch: 01 December)

Event Time Altitude Azimuth Distance (km) Brightness Sun altitude
Rises 17:04:07 0° 335° (NNW) 3,286 7.5 -11.9°
Reaches altitude 10° 17:06:31 10° 336° (NNW) 2,353 6.8 -12.3°
Maximum altitude 17:11:53 90° 64° (ENE) 790 4.0 -13.2°
Drops below altitude 10° 17:17:12 10° 157° (SSE) 2,329 6.3 -14.0°
Sets 17:19:34 0° 158° (SSE) 3,249 7.1 -14.4°
